This is the latest recevied weather packets stored in our database for station/object N4CRH-13. If no packets are shown the sender has not sent any weather packets the latest 10 day(s).
| Time | Temp. | Humidity | Pressure | Rain* | Wind** | Luminosity | Snow |
|---|---|---|---|---|---|---|---|
| 1778124191 | -1.67° C | 94% | 1296 hPa | 0 mm | - | 0 W/m² | - |
| 1778123888 | -1.67° C | 94% | 1295.8 hPa | 0 mm | - | 0 W/m² | - |
| 1778123584 | -1.67° C | 93% | 1295.4 hPa | 0 mm | - | 0 W/m² | - |
| 1778123281 | -1.11° C | 93% | 1295.8 hPa | 0 mm | - | 0 W/m² | - |
| 1778122979 | -1.11° C | 93% | 1295.6 hPa | 0 mm | - | 0 W/m² | - |
| 1778122676 | -1.11° C | 92% | 1295.6 hPa | 0 mm | - | 0 W/m² | - |
| 1778122373 | -1.11° C | 92% | 1295.4 hPa | 0 mm | - | 0 W/m² | - |
| 1778122071 | -1.11° C | 93% | 1295.4 hPa | 0 mm | - | 0 W/m² | - |
| 1778121767 | -1.11° C | 93% | 1295.2 hPa | 0 mm | - | 0 W/m² | - |
| 1778121463 | -1.11° C | 92% | 1295.4 hPa | 0 mm | - | 0 W/m² | - |
| 1778121160 | -0.56° C | 91% | 1295.4 hPa | 0 mm | - | 0 W/m² | - |
| 1778120858 | -0.56° C | 90% | 1295.2 hPa | 0 mm | - | 0 W/m² | - |
| 1778120553 | -0.56° C | 90% | 1295.3 hPa | 0 mm | - | 0 W/m² | - |
| 1778120250 | 0° C | 89% | 1295.4 hPa | 0 mm | - | 0 W/m² | - |
| 1778119945 | 0° C | 89% | 1295.2 hPa | 0 mm | - | 0 W/m² | - |
| 1778119644 | 0.56° C | 88% | 1295.2 hPa | 0 mm | - | 1 W/m² | - |
| 1778119340 | 0.56° C | 89% | 1295.3 hPa | 0 mm | - | 2 W/m² | - |
| 1778119038 | 0° C | 89% | 1295.2 hPa | 0 mm | - | 3 W/m² | - |
| 1778118735 | 0.56° C | 89% | 1295.1 hPa | 0 mm | - | 5 W/m² | - |
| 1778118432 | 0° C | 89% | 1295.3 hPa | 0 mm | - | 7 W/m² | - |
| 1778118128 | 0° C | 90% | 1295.3 hPa | 0 mm | - | 9 W/m² | - |
| 1778117825 | 0° C | 90% | 1295.3 hPa | 0 mm | - | 11 W/m² | - |
| 1778117522 | 0.56° C | 87% | 1295.2 hPa | 0 mm | - | 14 W/m² | - |
| 1778117219 | 1.11° C | 86% | 1295.6 hPa | 0 mm | - | 18 W/m² | - |
| 1778116915 | 1.67° C | 86% | 1295.4 hPa | 0 mm | - | 23 W/m² | - |
* Rain latest hour (hover to see other rain measurements)
** Current wind speed in m/s (hover to see current wind gust speed)